This demonstration page uses our WeatherBlox Daily Observations layout. Learn more.

Left ArrowRight Arrow

Hourly Observations for September 17, 2021

Temp ( °F °C ) Dew Point ( °F °C ) Humidity (%) Winds ( mph kmh ) Pressure ( in mb ) Visibility ( mi km ) Precip ( " mm )
12:53 am 00:53 Clear 76 24.4 53 11.7 45 45 SE 7 11 29.78 1009 10 16 0.00 0.00
1:53 am 01:53 Clear 72 22.2 54 12.2 53 53 SSE 7 11 29.79 1009 10 16 0.00 0.00
2:53 am 02:53 Clear 69 20.6 54 12.2 59 59 S 5 7 29.79 1009 10 16 0.00 0.00
3:53 am 03:53 Clear 68 20 53 11.7 59 59 Calm 29.79 1009 10 16 0.00 0.00
4:53 am 04:53 Clear 64 17.8 52 11.1 65 65 N 5 7 29.80 1009 10 16 0.00 0.00
5:53 am 05:53 Clear 62 16.7 50 10 65 65 NNE 6 9 29.80 1009 10 16 0.00 0.00
6:53 am 06:53 Clear 62 16.7 51 10.6 67 67 N 3 6 29.82 1010 10 16 0.00 0.00
7:53 am 07:53 Sunny 64 17.8 52 11.1 65 65 Calm 29.85 1011 10 16 0.00 0.00
8:53 am 08:53 Sunny 72 22.2 56 13.3 57 57 SE 9 15 29.86 1011 10 16 0.00 0.00
9:53 am 09:53 Sunny 77 25 57 13.9 50 50 SE 8 13 29.88 1012 10 16 0.00 0.00
10:53 am 10:53 Sunny 83 28.3 56 13.3 40 40 SE 6 9 29.89 1012 10 16 0.00 0.00
11:53 am 11:53 Sunny 88 31.1 53 11.7 30 30 SSW 6 9 29.88 1012 10 16 0.00 0.00
12:53 pm 12:53 Sunny 91 32.8 51 10.6 26 26 SSW 3 6 29.88 1012 10 16 0.00 0.00
1:53 pm 13:53 Sunny 95 35 49 9.4 21 21 SSW 7 11 29.85 1011 10 16 0.00 0.00
2:53 pm 14:53 Sunny 98 36.7 45 7.2 16 16 N 8 13 29.83 1010 10 16 0.00 0.00
3:53 pm 15:53 Sunny 98 36.7 43 6.1 15 15 VRB 3 6 29.81 1010 10 16 0.00 0.00
4:53 pm 16:53 Sunny 101 38.3 39 3.9 12 12 NNW 6 9 29.80 1009 10 16 0.00 0.00
5:53 pm 17:53 Sunny 100 37.8 40 4.4 13 13 ENE 5 7 29.81 1009 10 16 0.00 0.00
6:53 pm 18:53 Sunny 99 37.2 37 2.8 12 12 Calm 29.80 1009 10 16 0.00 0.00
7:53 pm 19:53 Sunny 93 33.9 37 2.8 14 14 ESE 6 9 29.82 1010 9 14 0.00 0.00
8:53 pm 20:53 Clear 86 30 42 5.6 21 21 SSE 6 9 29.83 1010 10 16 0.00 0.00
9:53 pm 21:53 Clear 83 28.3 45 7.2 26 26 SSE 8 13 29.86 1011 10 16 0.00 0.00
10:53 pm 22:53 Clear 83 28.3 51 10.6 33 33 SSE 8 13 29.88 1012 10 16 0.00 0.00
11:53 pm 23:53 Clear 80 26.7 51 10.6 37 37 E 5 7 29.89 1012 10 16 0.00 0.00

Powered by AerisWeather